Lacon, IL

11:33 AM CST on January 20, 2018 (GMT -0600)
Lacon

Weather History for KC75 - September, 2012

Change the Weather History Date:

Thursday, September 13, 2012

  Actual Average (KVYS) Record (KVYS)
Temperature  
Mean Temperature 64 °F -  
Max Temperature 71 °F 79 °F 95 °F (1991)
Min Temperature 56 °F 55 °F 33 °F (2006)
Degree Days  
Heating Degree Days 2    
Growing Degree Days 14 (Base 50)    
Moisture  
Dew Point 57 °F    
Average Humidity 77    
Maximum Humidity 95    
Minimum Humidity 55    
Precipitation  
Precipitation 0.22 in - - ()
Sea Level Pressure  
Sea Level Pressure 30.25 in    
Wind  
Wind Speed 6 mph (North)    
Max Wind Speed 15 mph    
Max Gust Speed 21 mph    
Visibility 10 miles    
Events Rain    
Averages and records for this station are not official NWS values.
T = Trace of Precipitation, MM = Missing Value Source: NWS Daily Summary

Daily Weather History Graph

Daily Weather History Graph

Search for Another Location

Airport or City:

Trip Planner

Search our weather history database for the weather conditions in past years. The results will help you decide how hot, cold, wet, or windy it might be!

Date:

Astronomy

Sep. 13, 2012 Rise Set
Actual Time 6:36 AM CDT 7:08 PM CDT
Civil Twilight 6:08 AM CDT 7:36 PM CDT
Nautical Twilight 5:36 AM CDT 8:09 PM CDT
Astronomical Twilight 5:02 AM CDT 8:42 PM CDT
Moon 3:54 AM CDT (9/13) 5:32 PM CDT (9/13)
Length of Visible Light 13h 27m
Length of Day
12h 32m
Waning Crescent, 7% of the Moon is Illuminated
Sep 13
Waning Crescent
Sep 15
New
Sep 22
First Quarter
Sep 29
Full
Oct 8
Last Quarter

Hourly Weather History & Observations

Time (CDT) Temp. Dew Point Humidity Pressure Visibility Wind Dir Wind Speed Gust Speed Precip Events Conditions
12:15 AM 70.3 °F 59.9 °F 69% 30.14 in 10.0 mi SSE 5.8 mph - N/A   Clear
12:35 AM 70.3 °F 60.1 °F 70% 30.14 in 10.0 mi SE 4.6 mph - N/A   Clear
12:55 AM 69.6 °F 60.1 °F 72% 30.15 in 10.0 mi SE 4.6 mph - N/A   Clear
1:15 AM 69.3 °F 60.4 °F 73% 30.15 in 10.0 mi SSE 5.8 mph - N/A   Clear
1:35 AM 69.3 °F 60.6 °F 74% 30.16 in 10.0 mi SSE 5.8 mph - N/A   Clear
1:55 AM 69.3 °F 60.8 °F 74% 30.16 in 10.0 mi SE 5.8 mph - N/A   Clear
2:15 AM 69.1 °F 60.8 °F 75% 30.16 in 10.0 mi SE 5.8 mph - N/A   Scattered Clouds
2:35 AM 68.9 °F 60.8 °F 75% 30.16 in 10.0 mi SE 3.5 mph - N/A   Clear
2:55 AM 68.0 °F 60.8 °F 78% 30.17 in 10.0 mi SE 4.6 mph - N/A   Clear
3:15 AM 67.6 °F 60.8 °F 79% 30.17 in 10.0 mi ESE 5.8 mph - N/A   Scattered Clouds
3:35 AM 67.5 °F 60.8 °F 79% 30.17 in 10.0 mi ESE 5.8 mph - N/A   Scattered Clouds
3:55 AM 67.3 °F 61.0 °F 80% 30.17 in 10.0 mi SE 5.8 mph - N/A   Clear
4:15 AM 67.1 °F 60.8 °F 80% 30.17 in 10.0 mi ESE 4.6 mph - N/A   Clear
4:35 AM 67.1 °F 60.8 °F 80% 30.18 in 10.0 mi ESE 4.6 mph - N/A   Scattered Clouds
4:55 AM 67.1 °F 61.0 °F 81% 30.18 in 10.0 mi ESE 3.5 mph - N/A   Overcast
5:15 AM 67.5 °F 61.0 °F 80% 30.18 in 10.0 mi ESE 4.6 mph - N/A   Overcast
5:35 AM 67.1 °F 61.0 °F 81% 30.18 in 10.0 mi ESE 4.6 mph - N/A   Mostly Cloudy
5:55 AM 67.1 °F 60.8 °F 80% 30.18 in 10.0 mi SE 5.8 mph - N/A   Scattered Clouds
6:15 AM 67.1 °F 60.6 °F 80% 30.19 in 10.0 mi Calm Calm - N/A   Scattered Clouds
6:35 AM 66.6 °F 60.6 °F 81% 30.20 in 10.0 mi Calm Calm - N/A   Mostly Cloudy
6:55 AM 66.0 °F 61.0 °F 84% 30.20 in 10.0 mi Calm Calm - N/A   Mostly Cloudy
7:15 AM 67.1 °F 61.9 °F 83% 30.21 in 10.0 mi Calm Calm - N/A   Overcast
7:35 AM 66.9 °F 62.6 °F 86% 30.23 in 10.0 mi Calm Calm - N/A   Scattered Clouds
7:55 AM 69.1 °F 63.1 °F 81% 30.23 in 10.0 mi WNW 4.6 mph - N/A   Scattered Clouds
8:15 AM 68.9 °F 62.2 °F 79% 30.23 in 10.0 mi NW 6.9 mph - N/A   Mostly Cloudy
8:35 AM 69.8 °F 63.0 °F 79% 30.23 in 10.0 mi NNW 6.9 mph - N/A   Scattered Clouds
8:55 AM 68.7 °F 59.7 °F 73% 30.23 in 10.0 mi NNW 5.8 mph - N/A   Scattered Clouds
9:15 AM 67.5 °F 55.8 °F 66% 30.25 in 10.0 mi NW 9.2 mph - N/A   Clear
9:35 AM 68.0 °F 54.0 °F 61% 30.25 in 10.0 mi NNW 8.1 mph - N/A   Scattered Clouds
9:55 AM 68.0 °F 54.1 °F 61% 30.25 in 10.0 mi NNW 8.1 mph - N/A   Scattered Clouds
10:15 AM 69.3 °F 55.0 °F 60% 30.25 in 10.0 mi North 6.9 mph - N/A   Clear
10:35 AM 69.1 °F 55.2 °F 61% 30.26 in 10.0 mi North 6.9 mph - N/A   Clear
10:55 AM 70.3 °F 55.6 °F 59% 30.26 in 10.0 mi NNW 9.2 mph - N/A   Clear
11:15 AM 70.9 °F 55.6 °F 58% 30.26 in 10.0 mi North 10.4 mph 16.1 mph N/A   Clear
11:35 AM 71.1 °F 55.0 °F 57% 30.26 in 10.0 mi NNW 10.4 mph - N/A   Scattered Clouds
11:55 AM 70.2 °F 54.1 °F 57% 30.26 in 10.0 mi NNW 11.5 mph - N/A   Scattered Clouds
12:15 PM 71.4 °F 54.3 °F 55% 30.26 in 10.0 mi North 10.4 mph - N/A   Mostly Cloudy
12:35 PM 69.4 °F 53.2 °F 56% 30.27 in 10.0 mi North 10.4 mph - N/A   Scattered Clouds
12:55 PM 69.8 °F 53.1 °F 55% 30.26 in 10.0 mi NNW 8.1 mph 16.1 mph N/A   Mostly Cloudy
1:15 PM 69.8 °F 53.2 °F 56% 30.26 in 10.0 mi NNW 9.2 mph - N/A   Scattered Clouds
1:35 PM 68.2 °F 52.0 °F 56% 30.25 in 10.0 mi NNW 11.5 mph 17.3 mph N/A   Mostly Cloudy
1:55 PM 67.8 °F 51.8 °F 56% 30.26 in 10.0 mi NNW 9.2 mph - N/A   Mostly Cloudy
2:15 PM 66.7 °F 51.6 °F 58% 30.26 in 10.0 mi NNW 10.4 mph 19.6 mph N/A   Mostly Cloudy
2:35 PM 65.8 °F 51.4 °F 60% 30.26 in 10.0 mi NNW 9.2 mph 12.7 mph N/A   Overcast
2:55 PM 65.7 °F 51.1 °F 59% 30.26 in 10.0 mi NW 15.0 mph 18.4 mph N/A   Overcast
3:15 PM 64.8 °F 50.5 °F 60% 30.27 in 10.0 mi NNW 10.4 mph - N/A   Overcast
3:35 PM 63.1 °F 49.8 °F 62% 30.28 in 10.0 mi NW 13.8 mph 20.7 mph N/A   Overcast
3:55 PM 59.9 °F 53.4 °F 79% 30.28 in 5.0 mi NW 12.7 mph 19.6 mph N/A Rain Rain
4:15 PM 57.6 °F 55.0 °F 91% 30.29 in 5.0 mi NNW 9.2 mph - N/A   Drizzle
4:35 PM 57.6 °F 55.0 °F 91% 30.29 in 10.0 mi NNW 6.9 mph - N/A   Overcast
4:55 PM 57.7 °F 54.7 °F 90% 30.29 in 10.0 mi NNW 8.1 mph - N/A   Overcast
5:15 PM 58.1 °F 54.9 °F 89% 30.28 in 10.0 mi North 6.9 mph - N/A   Overcast
5:35 PM 57.9 °F 55.2 °F 91% 30.28 in 10.0 mi North 5.8 mph - N/A   Light Drizzle
5:55 PM 58.1 °F 55.4 °F 91% 30.28 in 7.0 mi North 6.9 mph - N/A   Overcast
6:15 PM 57.9 °F 55.9 °F 93% 30.29 in 2.0 mi North 5.8 mph - 0.05 in Rain Heavy Rain
6:35 PM 57.9 °F 56.3 °F 94% 30.30 in 5.0 mi NNW 8.1 mph - 0.08 in Rain Light Rain
6:55 PM 57.2 °F 55.4 °F 94% 30.30 in 7.0 mi NNW 5.8 mph - N/A Rain Light Rain
7:15 PM 57.6 °F 55.9 °F 94% 30.30 in 7.0 mi NNW 6.9 mph - 0.01 in Rain Rain
7:35 PM 57.7 °F 56.3 °F 95% 30.31 in 7.0 mi NNW 5.8 mph - 0.02 in Rain Light Rain
7:55 PM 57.7 °F 56.3 °F 95% 30.32 in 10.0 mi NNW 6.9 mph - 0.03 in Rain Light Rain
8:15 PM 57.7 °F 55.9 °F 94% 30.33 in 10.0 mi North 3.5 mph - 0.02 in Rain Rain
8:35 PM 57.7 °F 55.8 °F 93% 30.33 in 10.0 mi North 4.6 mph - 0.04 in Rain Light Rain
8:55 PM 57.6 °F 55.6 °F 93% 30.33 in 10.0 mi North 4.6 mph - 0.05 in Rain Rain
9:15 PM 57.7 °F 55.8 °F 93% 30.33 in 10.0 mi NNW 4.6 mph - 0.02 in Rain Light Rain
9:35 PM 57.7 °F 56.3 °F 95% 30.34 in 7.0 mi NNW 5.8 mph - 0.03 in Rain Rain
9:55 PM 57.6 °F 55.9 °F 94% 30.34 in 10.0 mi NNW 5.8 mph - 0.04 in Rain Light Rain
10:15 PM 57.4 °F 54.9 °F 91% 30.34 in 10.0 mi NNW 6.9 mph - N/A   Drizzle
10:35 PM 57.2 °F 54.5 °F 91% 30.34 in 10.0 mi NNW 6.9 mph - 0.01 in Rain Light Rain
10:55 PM 56.8 °F 54.5 °F 92% 30.34 in 10.0 mi NNW 5.8 mph - 0.01 in   Drizzle
11:15 PM 56.7 °F 53.8 °F 90% 30.34 in 10.0 mi North 4.6 mph - N/A   Light Drizzle
11:35 PM 56.5 °F 53.1 °F 88% 30.35 in 10.0 mi Calm Calm - 0.01 in   Light Drizzle
11:55 PM 56.3 °F 53.2 °F 89% 30.34 in 10.0 mi NNE 4.6 mph - 0.01 in   Overcast